Regional Weather Roundup
Issued by NWS

Home | Current Version | Previous Version | Text Only | Print | Product List | Glossary On
Versions: 1 2 3 4 5 6 7 8 9 10 11 12 13 14 15 16 17 18 19 20 21 22 23 24 25 26 27 28 29 30 31 32 33 34 35 36 37 38 39 40 41 42 43 44 45 46 47 48 49 50
000
ASUS43 KMKX 222311
RWRWI

WISCONSIN REGIONAL WEATHER ROUNDUP
NATIONAL WEATHER SERVICE MILWAUKEE/SULLIVAN WI
600 PM CDT TUE APR 22 2014

NOTE: "FAIR" INDICATES FEW OR NO CLOUDS BELOW 12,000 FEET WITH NO
SIGNIFICANT WEATHER AND/OR OBSTRUCTIONS TO VISIBILITY.

WIZ001-002-006>008-014>016-023>028-230000-
NORTHWEST WISCONSIN

CITY           SKY/WX    TMP DP  RH WIND       PRES   REMARKS
SUPERIOR ARPT  SUNNY     54  22  28 N8        30.06F
ASHLAND        SUNNY     50  25  37 NE6       30.08S
HAYWARD        SUNNY     51  21  30 VRB6      30.06F
SIREN          SUNNY     53  20  26 NE9       30.06S
RICE LAKE      SUNNY     53  23  31 N14       30.06S
LADYSMITH      SUNNY     52  25  35 NW14      30.07R
EAU CLAIRE     SUNNY     54  21  27 NE8       30.04S
MENOMONIE      CLEAR     55  19  23 N15       30.04S
NEW RICHMOND   SUNNY     54  21  27 N12       30.06R
OSCEOLA        MOSUNNY   55  23  29 N8        30.08R
$$

WIZ003>005-009-010-017-018-230000-
NORTH CENTRAL WISCONSIN

CITY           SKY/WX    TMP DP  RH WIND       PRES   REMARKS
WOODRUFF       MOSUNNY   46  24  43 N13G23    30.06R
RHINELANDER    MOSUNNY   43  24  47 N7G20     30.06R
EAGLE RIVER    CLOUDY    41  23  47 N12G17    30.05R
LAND O LAKES   PTSUNNY   43  25  50 N16G22    30.06R
PHILLIPS       MOSUNNY   47  26  43 N8        30.05R
TOMAHAWK       SUNNY     45  24  43 N12G17    30.06R
MEDFORD        SUNNY     48  25  40 N13G20    30.04R
MERRILL        SUNNY     47  26  42 N14       30.05R
$$

WIZ029-030-035-036-043>047-230000-
CENTRAL WISCONSIN

CITY           SKY/WX    TMP DP  RH WIND       PRES   REMARKS
WAUSAU         SUNNY     49  24  37 N12G18    30.03R
MOSINEE        SUNNY     48  25  40 N14       30.04R
MARSHFIELD     SUNNY     52  25  35 N18G25    30.03R
STEVENS POINT  SUNNY     49  22  34 N15G21    30.03R
WAUPACA        SUNNY     54  21  28 NW12      30.02S
WAUTOMA        SUNNY     53  24  32 N14G22    30.01S
WISC RAPIDS    SUNNY     53  23  31 N13G26    30.03S
CAMP DOUGLAS   MOSUNNY   55  23  28 N13G21    30.02R
$$

WIZ011>013-019>022-031-037>040-048>050-230000-
NORTHEAST WISCONSIN

CITY           SKY/WX    TMP DP  RH WIND       PRES   REMARKS
ANTIGO         SUNNY     43  29  56 N17       30.04R
STURGEON BAY   CLOUDY    43  28  56 N17       30.02R
GREEN BAY      MOSUNNY   49  30  48 N14G22    30.02S
MANITOWOC      SUNNY     47  28  47 N15G24    30.01S
APPLETON       MOSUNNY  N/A N/A N/A N12       30.02R
CLINTONVILLE   SUNNY     50  23  34 N10G21    30.01S
OSHKOSH        SUNNY     51  24  34 N20       30.00S
$$

WIZ032>034-041-042-053>061-230000-
SOUTHWEST WISCONSIN

CITY           SKY/WX    TMP DP  RH WIND       PRES   REMARKS
LA CROSSE      SUNNY     59  23  25 N13G21    30.02S
SPARTA         SUNNY     55  21  26 N13       30.03S
VIROQUA        FAIR      55  26  32 N8        30.01S
BOSCOBEL       SUNNY     61  23  23 N13       30.01S
PRAIRIE DU CHI MOSUNNY   58  24  26 NW8       30.01S
PLATTEVILLE    FAIR      57  24  27 N13G18    30.01S
$$

WIZ056-057-062-063-064-067-068-230000-
SOUTH CENTRAL WISCONSIN

CITY           SKY/WX    TMP DP  RH WIND       PRES   REMARKS
BARABOO/DELLS  SUNNY     55  22  28 N12G21    30.00R
LONE ROCK      SUNNY     58  24  27 N14       30.00R
WATERTOWN      MOSUNNY   54  27  35 NW16G22   29.98S
MADISON        MOSUNNY   57  22  25 N13       29.99S
MIDDLETON      FAIR      58  21  24 N13       30.00R
MONROE         MOSUNNY   57  25  29 N17       29.98S
JANESVILLE     SUNNY     61  23  23 NW12G23   29.98R
$$

WIZ051-052-058>065-066-070>072-230000-
SOUTHEAST WISCONSIN

CITY           SKY/WX    TMP DP  RH WIND       PRES   REMARKS
MILWAUKEE      MOSUNNY   44  30  57 NE8       30.01R
WAUKESHA       MOSUNNY   54  27  35 NW14G26   29.99R
MILWAUKEE/TIMM MOSUNNY   55  25  30 N14G22    29.99R
RACINE         SUNNY     45  30  55 NE10      30.02R
BURLINGTON     SUNNY     54  26  33 N14G22    29.98S
KENOSHA        SUNNY     45  30  55 E10       30.00R
FOND DU LAC    SUNNY     51  27  39 N18G25    30.00S
SHEBOYGAN      SUNNY     49  28  44 N13       30.00R
WEST BEND      SUNNY     50  25  37 N13       29.99R
JUNEAU         MOSUNNY   54  19  25 N15G21    29.99S
$$

LSZ147-162-230000-
LAKE SUPERIOR

STATION/POSITION TIME  TEMP    WIND        PRES    WAVE
                       AIR SEA DIR/SP/G            HT/PER
                 (UTC) (F)     (DEG/KT/KT) (MB)    (FT/S)
DEVILS ISLAND    2300   46     210/  2/  4 1019.0F
PORT WING        2200   44     320/  4/  4 1018.6
SAXON HARBOR     2240             CALM     1019.0S
$$

LMZ867-665-643>646-230000-
LAKE MICHIGAN

STATION/POSITION TIME  TEMP    WIND        PRES    WAVE
                       AIR SEA DIR/SP/G            HT/PER
                 (UTC) (F)     (DEG/KT/KT) (MB)    (FT/S)
NORTHPORT PIER   2200   36     350/ 12/ 16 1015.9R
SISTER BAY       2209   39      10/ 17/ 20   N/A
KEWAUNEE LAKESHO 2200   46     340/ 17/ 21 1016.6R
SHEBOYGAN LAKESH 2300   44      10/ 13/ 14 1016.8R
PORT WASHINGTON  2230   46      60/ 10/ 21 1016.6R
MILWAUKEE LAKESH 2200   40     130/  3/  4   N/A
KENOSHA   LAKESH 2300   45     130/  3/  4   N/A
$$

TC  - TEMPERATURE IN CELSIUS
VSB - VISIBILITY IN STATUTE MILES
WCI - WIND CHILL INDEX
HX  - HEAT INDEX




USA.gov is the U.S. government's official web portal to all federal, state and local government web resources and services.